Location: Brantley
(31.5822°N, 86.2569°W)
Time: 16:25:27
(UTC+00:00)

Injun/Solrad 3 - Pass Details

Date: 18 February 2026
Orbit: 871 x 985 km, 66.8° (Epoch: 11 March)

Event Time Altitude Azimuth Distance (km) Brightness Sun altitude
Rises 01:04:12 0° 350° (N) 3,585 11.1 -19.9°
Reaches altitude 10° 01:07:24 10° 6° (N) 2,659 10.2 -20.6°
Enters shadow 01:10:26 19° 34° (NE) 2,078 9.4 -21.2°
Maximum altitude 01:11:59 21° 54° (NE) 1,996 - -21.6°
Drops below altitude 10° 01:16:38 10° 102° (ESE) 2,704 - -22.5°
Sets 01:19:53 0° 117° (ESE) 3,661 - -23.2°
